www.pogodaiklimat.ru
ПОГОДА в Хогевене
Время
(UTC), дата
19 13.10
20 13.10
21 13.10
22 13.10
23 13.10
00 14.10
01 14.10
02 14.10
03 14.10
04 14.10
05 14.10
06 14.10
07 14.10
08 14.10
09 14.10
10 14.10
11 14.10
12 14.10
13 14.10
14 14.10
15 14.10
16 14.10
17 14.10
18 14.10
19 14.10
20 14.10
21 14.10
22 14.10
23 14.10
00 15.10
01 15.10
02 15.10
03 15.10
04 15.10
05 15.10
06 15.10
07 15.10
08 15.10
09 15.10
10 15.10
11 15.10
12 15.10
13 15.10
14 15.10
15 15.10
16 15.10
17 15.10
18 15.10
19 15.10
20 15.10
21 15.10
22 15.10
23 15.10
00 16.10
01 16.10
02 16.10
03 16.10
04 16.10
05 16.10
06 16.10
07 16.10
08 16.10
09 16.10
10 16.10
11 16.10
12 16.10
13 16.10
14 16.10
15 16.10
16 16.10
17 16.10
18 16.10
19 16.10
20 16.10
21 16.10
22 16.10
23 16.10
00 17.10
01 17.10
02 17.10
03 17.10
04 17.10
05 17.10
06 17.10
07 17.10
08 17.10
09 17.10
10 17.10
11 17.10
12 17.10
13 17.10
14 17.10
15 17.10
16 17.10
17 17.10
18 17.10
19 17.10
20 17.10
21 17.10
22 17.10
23 17.10
00 18.10
01 18.10
02 18.10
03 18.10
04 18.10
05 18.10
06 18.10
09 18.10
10 18.10
11 18.10
12 18.10
13 18.10
14 18.10
15 18.10
16 18.10
17 18.10
18 18.10
19 18.10
20 18.10
21 18.10
22 18.10
23 18.10
00 19.10
01 19.10
02 19.10
03 19.10
04 19.10
05 19.10
06 19.10
07 19.10
08 19.10
09 19.10
10 19.10
11 19.10
12 19.10
13 19.10
14 19.10
15 19.10
16 19.10
17 19.10
18 19.10
19 19.10
20 19.10
21 19.10
22 19.10
23 19.10
00 20.10
01 20.10
02 20.10
03 20.10
04 20.10
05 20.10
06 20.10
07 20.10
08 20.10
09 20.10
10 20.10
11 20.10
12 20.10
13 20.10
14 20.10
15 20.10
17 20.10
18 20.10
Ветер
(напр.,м/с)
Видим. Явления Облачность Т
(С)
Тd
(С)
f
(%)
Тe
(С)
Тes
(С)
Комфортность P
(гПа)
Po
(гПа)
Тmin
(С)
Tmax
(С)
R
(мм)
R24
(мм)
S
(см)
ЮЗ 8 15 км морось с дождем {ливн. осадки} 10/10 1500 м
[]
+17.2 +16.4 95 +16 +16 тепло 1006.5 1004.4 3
ЮЗ 6 27 км слаб. дождь {морось} 10/10 1500 м
[]
+16.7 +15.6 93 +16 +16 тепло 1007.6 1005.4 0.2
ЮЗ 7-10
{17}
40 км в посл. час дождь {ливн. осадки, морось} 10 баллов +15.6 +13.5 87 +14 +14 тепло 1008.2 1006.1
ЮЗ 6-9
{10}
30 км {ливн. осадки, дождь} 9/9
[]
+15.2 +13.0 87 +14 +14 тепло 1009.4 1007.2
ЮЗ 6-9
{10}
25 км {ливн. осадки, дождь} 8/8
[]
+14.7 +13.0 90 +13 +13 тепло 1010.1 1008.0
ЮЗ 5-7
{17}
22 км {ливн. осадки, дождь} 3 балла +13.9 +12.6 92 +12 +12 тепло 1010.8 1008.7 3
ЮЗ 3-5
{7}
17 км 3/3
[]
+12.9 +12.2 96 +11 +11 тепло 1011.8 1009.6
ЮЗ 4-5
{5}
20 км 10/10
[]
+13.0 +12.0 94 +11 +11 тепло 1012.3 1010.2
ЮЗ 4-5
{7}
19 км 10 баллов +12.9 +11.8 93 +11 +11 тепло 1012.3 1010.2
ЮЗ 2 18 км 10/10
[]
+12.5 +11.8 95 +11 +11 тепло 1013.0 1010.8
Ю 2 16 км 10/10
[]
+12.2 +11.9 98 +11 +11 тепло 1013.2 1011.1
Ю 2-2
{7}
14 км 10 баллов +11.9 +11.6 98 +11 +11 тепло 1013.5 1011.2 +11.8 3
Ю 1 14 км 10/10
[]
+12.3 +11.9 97 +12 +12 тепло 1013.9 1012.0
ЮВ 1 14 км 10/10 2000 м
[]
+12.9 +12.2 96 +13 +13 тепло 1013.8 1011.8
ЮВ 2-2
{3}
18 км 10 баллов +13.4 +12.5 94 +13 +13 тепло 1014.6 1012.5
В 2 20 км 10/10 2000 м
[]
+14.4 +12.6 89 +14 +14 тепло 1013.7 1011.7
В 3 23 км 10/10 1500 м
[]
+14.6 +12.3 86 +14 +14 тепло 1013.3 1011.3
СВ 3-4
{5}
21 км 10 баллов +15.2 +13.0 87 +14 +15 тепло 1012.2 1010.3
В 5 12 км гроза, ливневой дождь 10/10
[]
+14.8 +12.7 87 +13 +13 тепло 1010.8 1009.0 0.4
СВ 4 21 км в посл. час гроза без осадков {ливн. осадки} 10/10 1000 м
[]
+15.5 +13.9 90 +14 +14 тепло 1010.5 1008.5
В 4-5
{7}
23 км {гроза, ливн. осадки} 10 баллов +15.6 +13.9 90 +15 +15 тепло 1009.7 1007.7
В 4 23 км {гроза, ливн. осадки} 10/10
[]
+15.6 +13.4 87 +15 +15 тепло 1009.2 1007.1
В 4 18 км {гроза, ливн. осадки} 10/10
[]
+15.0 +13.5 91 +14 +14 тепло 1008.2 1006.2
В 5-7
{7}
19 км {гроза, ливн. осадки} 10 баллов +15.1 +13.7 91 +14 +14 тепло 1008.1 1006.0 +15.9 0.5
В 4 18 км 10/10
[]
+15.3 +13.9 91 +14 +14 тепло 1007.8 1005.8
В 3 15 км 10/10
[]
+15.0 +13.8 93 +14 +14 тепло 1007.2 1005.2
ЮВ 3-4
{7}
12 км 10 баллов +14.7 +13.9 95 +14 +14 тепло 1006.4 1004.3
ЮВ 1-2
{3}
6000 м дымка 10/10
[]
+13.4 +13.2 99 +13 +13 тепло 1006.6 1004.5
В 2-3
{3}
5000 м дымка 10/10
[]
+13.0 +12.9 99 +12 +12 тепло 1005.9 1003.7
В 2-4
{7}
7000 м дымка 10 баллов +13.4 +13.0 97 +13 +13 тепло 1005.0 1002.9
ЮВ 3-3
{4}
8000 м дымка 5/5
[]
+13.1 +12.7 97 +12 +12 тепло 1004.9 1002.8
Ю 3-5
{5}
20 км 10/10
[]
+15.0 +13.4 90 +14 +14 тепло 1004.7 1002.6
Ю 3-4
{5}
22 км 5 баллов +14.7 +13.0 90 +14 +14 тепло 1004.5 1002.3
Ю 2 18 км 1/1
[]
+13.5 +12.3 92 +13 +13 тепло 1004.8 1002.6
Ю 2 11 км 8/8
[]
+13.0 +12.8 99 +12 +12 тепло 1004.6 1002.5
ЮЗ 2-3
{5}
16 км 1 балл +13.1 +12.2 94 +12 +12 тепло 1004.5 1002.3 +12.4
ЮЗ 1 15 км 8/8
[]
+13.4 +12.6 95 +13 +13 тепло 1004.9 1002.8
Ю 2 18 км 9/9
[]
+14.5 +13.4 93 +14 +14 тепло 1005.2 1003.1
Ю 4-5
{5}
19 км слаб. ливневой дождь 10 баллов +15.0 +13.7 92 +14 +14 тепло 1006.1 1004.0
ЮЗ 4 23 км в посл. час дождь {ливн. осадки, морось} 10/10
[]
+16.5 +14.2 86 +16 +16 тепло 1006.0 1003.9
ЮЗ 3 25 км {ливн. осадки, морось} 10/6 1500 м
[]
+17.1 +14.3 84 +17 +18 тепло 1005.8 1003.7
ЮЗ 5-7
{7}
35 км {ливн. осадки, морось} 10 баллов +16.6 +13.5 82 +16 +16 тепло 1006.1 1004.0
ЮЗ 4 29 км 9/9
[]
+16.4 +13.2 81 +16 +16 тепло 1005.9 1003.8
ЮЗ 5 30 км 10/10
[]
+17.4 +13.5 78 +17 +17 тепло 1005.9 1003.8
ЮЗ 2-3
{7}
26 км 10 баллов +16.5 +13.5 82 +17 +17 тепло 1005.6 1003.7
З 2 20 км слаб. морось 10/10
[]
+15.3 +13.8 91 +15 +15 тепло 1005.5 1003.3 0.1
Ю 2 12 км морось {ливн. осадки, дождь} 8/8
[]
+14.4 +13.7 96 +14 +14 тепло 1006.4 1004.2
Ю 2-2
{7}
7000 м сильн. морось {ливн. осадки, дождь} 10 баллов +14.1 +13.7 97 +13 +13 тепло 1006.5 1004.4 +18.0 0.2
ЮЗ 2 5000 м дождь 10/10 1000 м
[]
+14.1 +13.8 98 +13 +13 тепло 1006.8 1004.7 1
ЮЗ 2 5000 м слаб. дождь {морось} 10/10
[]
+13.6 +13.4 99 +13 +13 тепло 1007.3 1005.1 0.7
Ю 2-3
{4}
4400 м дождь {морось} 10 баллов +13.4 +13.3 99 +13 +13 тепло 1007.5 1005.5 0.8
ЮЗ 3-4
{5}
3700 м морось {дождь} 10/9 200 м
[]
+13.5 +13.4 99 +12 +12 тепло 1007.4 1005.3 0.9
ЮЗ 3-4
{4}
3600 м морось с дождем 10/10 200 м
[]
+13.4 +13.2 99 +12 +12 тепло 1007.2 1005.1 0.3
ЮЗ 3-5
{6}
5000 м слаб. морось {дождь} 10 баллов +13.0 +12.8 99 +11 +11 тепло 1007.5 1005.4 0.2
ЮЗ 3-4
{5}
4300 м в посл. час дождь {морось} 10/10 200 м
[]
+13.0 +12.8 99 +11 +11 тепло 1007.6 1005.5
ЮЗ 3-5
{6}
4900 м слаб. ливневой дождь {морось} 10/8 200 м
[]
+12.8 +12.6 99 +11 +11 тепло 1007.8 1005.7 0.1
ЮЗ 3-5
{6}
5000 м слаб. дождь {морось} 9 баллов +12.5 +12.2 98 +11 +11 тепло 1007.7 1005.6 0.3
ЮЗ 3 4900 м в посл. час дождь {ливн. осадки, морось} 9/9 1500 м
[]
+12.1 +11.8 98 +10 +10 тепло 1007.7 1005.6 0.1
ЮЗ 4 6000 м дымка {ливн. осадки, дождь} 9/9
[]
+11.9 +11.5 97 +10 +10 тепло 1007.9 1005.8
ЮЗ 5-6
{6}
7000 м дымка {ливн. осадки, дождь} 10 баллов +11.4 +11.1 98 +9 +9 тепло 1008.0 1005.9 +11.3 5
ЮЗ 5 8000 м дымка 10/10 200 м
[]
+11.3 +10.6 95 +8 +8 тепло 1008.5 1006.4
ЮЗ 5 10 км 10/10 200 м
[]
+11.5 +10.6 94 +9 +9 тепло 1008.8 1006.6
Ю 4-6
{8}
10 км 10 баллов +12.1 +11.2 94 +10 +10 тепло 1008.8 1006.7
Ю 4 15 км 5/5 300 м
[]
+13.9 +11.5 85 +12 +14 тепло 1008.4 1006.3
Ю 5 27 км 3/1 300 м
[]
+14.4 +11.4 82 +13 +15 тепло 1008.1 1006.0
Ю 5-8
{9}
30 км 6 баллов +14.9 +11.5 80 +13 +14 тепло 1007.6 1005.4 0.0
Ю 4 35 км 10/10 600 м
[]
+14.7 +11.7 82 +13 +13 тепло 1007.3 1005.2
Ю 5 35 км 10/10 600 м
[]
+13.8 +12.0 89 +12 +12 тепло 1007.1 1005.0
Ю 6-8
{10}
7000 м дымка 10 баллов +13.4 +12.3 93 +11 +11 тепло 1006.8 1004.7
Ю 4 5000 м слаб. морось {дождь, дымка} 10/10 200 м
[]
+13.1 +12.9 99 +11 +11 тепло 1006.5 1004.4 0.1
Ю 5 3300 м сильн. морось {ливн. осадки, дымка} 10/10 200 м
[]
+13.2 +13.1 99 +11 +11 тепло 1006.5 1004.4 0.4
Ю 5-7
{10}
3200 м морось {ливн. осадки, дождь} 10 баллов +13.4 +13.3 99 +11 +11 тепло 1006.4 1004.3 +15.6 0.5
Ю 5 3200 м в посл. час морось 10/9 200 м
[]
+13.6 +13.5 99 +12 +12 тепло 1006.2 1004.1 0.4
Ю 6 8000 м слаб. ливневой дождь {морось} 10/8 200 м
[]
+13.7 +13.5 99 +11 +11 тепло 1006.3 1004.2 3
Ю 5-7
{9}
10 км сильн. морось {ливн. осадки, дождь} 10 баллов +13.8 +13.6 99 +12 +12 тепло 1006.4 1004.3 2
Ю 5-8
{8}
13 км слаб. дождь {морось} 10/9 200 м
[]
+13.8 +13.5 98 +12 +12 тепло 1006.2 1004.1 2
Ю 6-9
{9}
3200 м морось {ливн. осадки, дождь} 10/10 200 м
[]
+13.7 +13.6 99 +11 +11 тепло 1006.1 1004.1 0.6
Ю 5-10
{10}
4000 м в посл. час морось {ливн. осадки, дождь} 10 баллов +13.7 +13.5 99 +12 +12 тепло 1006.1 1004.0 0.1
Ю 5-7
{9}
15 км в посл. час дождь {ливн. осадки} 10/10 200 м
[]
+13.6 +13.3 98 +12 +12 тепло 1006.1 1004.0 0.4
Ю 5-8
{9}
6000 м дымка {ливн. осадки, дождь} 10/10 200 м
[]
+13.5 +13.1 97 +11 +11 тепло 1006.2 1004.1
Ю 4-6
{10}
6000 м морось с дождем {ливн. осадки, дымка} 10 баллов +13.4 +13.3 99 +12 +12 тепло 1006.1 1004.0 0.3
Ю 4 4300 м сильн. морось {ливн. осадки, дождь} 10/10 200 м
[]
+13.4 +13.3 99 +12 +12 тепло 1006.2 1004.1 0.4
ЮЗ 4 4000 м сильн. морось {ливн. осадки, дождь} 10/10 100 м
[]
+13.5 +13.5 100 +12 +12 тепло 1006.4 1004.3 0.3
СЗ 4-6
{10}
2800 м морось {ливн. осадки, дождь} 10 баллов +12.2 +12.1 99 +10 +10 тепло 1007.3 1005.1 +12.2 0.4
З 3 2900 м морось 10/9 100 м
[]
+11.9 +11.9 100 +10 +10 тепло 1008.6 1006.6 0.6
ЮЗ 1 9000 м слаб. ливневой дождь {морось} 10/6 1000 м
[]
+12.1 +11.9 99 +12 +12 тепло 1009.3 1007.2 0.1
ЮЗ 3-4
{6}
13 км в посл. час дождь {ливн. осадки, морось} 9 баллов +12.9 +12.2 96 +11 +12 тепло 1009.7 1007.6
ЮЗ 3 16 км {ливн. осадки, морось} 10/8 200 м
[]
+13.8 +12.3 91 +13 +13 тепло 1010.0 1007.8
ЮЗ 3 18 км {ливн. осадки, морось} 10/10 1500 м
[]
+14.5 +11.9 84 +14 +14 тепло 1010.2 1008.2
ЮЗ 4-6
{6}
21 км {ливн. осадки, морось} 4 балла +14.5 +11.8 84 +13 +15 тепло 1010.3 1008.2 0.7
Ю 3 26 км 1/1 600 м
[]
+14.6 +11.4 81 +14 +16 тепло 1010.0 1007.9
Ю 3 30 км 10/10 1500 м
[]
+15.1 +12.1 82 +14 +14 тепло 1009.7 1007.7
Ю 4-6
{7}
30 км 5 баллов +15.0 +11.2 78 +14 +14 тепло 1009.6 1007.5
ЮВ 2 21 км 8/8 2000 м
[]
+14.1 +11.6 85 +14 +14 тепло 1009.1 1007.1
Ю 2 18 км слаб. ливневой дождь 10/10 1500 м
[]
+13.5 +11.3 87 +13 +13 тепло 1009.1 1007.1
Ю 3-5
{7}
13 км слаб. морось с дождем 10 баллов +13.6 +12.0 90 +12 +12 тепло 1009.2 1007.2 +15.5 0.7
Ю 3 17 км слаб. морось с дождем 10/10 1500 м
[]
+12.9 +12.0 94 +11 +11 тепло 1009.0 1006.9
Ю 2 9000 м в посл. час дождь {морось} 9/9 100 м
[]
+12.0 +11.7 98 +11 +11 тепло 1008.9 1006.8
Ю 4-5
{7}
9000 м дымка 10 баллов +12.2 +12.0 99 +10 +10 тепло 1009.0 1006.9
Ю 3-5
{6}
10 км {морось, дымка} 10/10 100 м
[]
+12.1 +11.8 98 +10 +10 тепло 1008.5 1006.4
Ю 3-5
{6}
9000 м дымка {дождь} 10/10 100 м
[]
+12.0 +11.4 96 +10 +10 тепло 1008.3 1006.3
Ю 2-4
{7}
9000 м дымка 9 баллов +11.8 +11.1 95 +11 +11 тепло 1008.0 1006.0
Ю 3-5
{6}
5000 м дымка 10/10 100 м
[]
+11.6 +11.2 97 +10 +10 тепло 1007.7 1005.6
Ю 4-5
{6}
6000 м дымка 10/9 200 м
[]
+12.0 +11.6 97 +10 +10 тепло 1006.8 1004.8
Ю 4-6
{6}
8000 м дымка 10 баллов +12.6 +12.1 97 +11 +11 тепло 1006.4 1004.3
Ю 4 12 км 10/8 1500 м
[]
+12.0 +11.5 97 +10 +10 тепло 1005.6 1003.6
Ю 5 10 км ливневой дождь 10/10 1500 м
[]
+12.3 +11.6 95 +10 +10 тепло 1004.9 1002.8 0.7
Ю 4-6
{8}
35 км в посл. час дождь {ливн. осадки} 10 баллов +12.0 +11.4 96 +10 +10 тепло 1004.4 1002.3 +10.7 0.4
Ю 6-10
{10}
40 км 8 баллов +14.2 +12.2 88 +12 +12 тепло 1002.8 1000.8
Ю 7 40 км в посл. час дождь 10/9 1000 м
[]
+15.6 +12.4 81 +14 +14 тепло 1001.5 999.6
ЮЗ 6 13 км слаб. ливневой дождь 10/6 1000 м
[]
+12.4 +11.0 91 +10 +10 тепло 1001.2 999.0 4
Ю 7-10
{15}
45 км в посл. час дождь 10 баллов +12.5 +10.4 87 +10 +10 тепло 1001.1 999.1 4
ЮЗ 9 45 км 10/6 600 м
[]
+12.9 +9.2 78 +10 +10 тепло 1001.6 999.4
ЮЗ 6 15 км слаб. ливневой дождь 10/9 600 м
[]
+11.5 +9.7 89 +8 +8 тепло 1002.4 1000.3 1
ЮЗ 6-8
{15}
35 км в посл. час дождь {ливн. осадки} 1 балл +12.4 +9.6 83 +10 +10 тепло 1003.0 1000.9 0.8
ЮЗ 7 35 км {ливн. осадки, дождь} 6/6
[]
+12.1 +8.4 78 +9 +9 тепло 1003.7 1001.6
ЮЗ 7 45 км {ливн. осадки, дождь} 9/9
[]
+11.4 +7.7 78 +8 +8 тепло 1004.3 1002.2
ЮЗ 7-9
{15}
45 км {ливн. осадки, дождь} 10 баллов +11.3 +7.3 76 +8 +8 тепло 1004.9 1002.7 +15.7 6
Ю 6 45 км 9/9
[]
+10.8 +7.3 79 +8 +8 тепло 1005.0 1002.9
Ю 7 45 км 4/4
[]
+10.6 +7.6 82 +7 +7 тепло 1005.0 1002.9
Ю 6-9
{12}
45 км 9 баллов +10.5 +7.4 81 +7 +7 тепло 1005.3 1003.2
ЮЗ 6-8
{10}
40 км 10/10
[]
+10.4 +7.2 81 +7 +7 тепло 1005.4 1003.3
Ю 5-8
{9}
45 км 10/10
[]
+10.0 +7.0 82 +7 +7 тепло 1005.2 1003.1
Ю 6-8
{12}
45 км 10 баллов +10.0 +7.1 82 +7 +7 тепло 1005.0 1002.9
Ю 5-9
{9}
40 км 10/10
[]
+9.8 +7.2 84 +7 +7 тепло 1004.7 1002.6
Ю 5-6
{9}
35 км 10/10
[]
+9.6 +7.4 86 +6 +6 тепло 1004.4 1002.3
Ю 5-7
{9}
35 км 10 баллов +9.8 +7.6 86 +7 +7 тепло 1004.3 1002.2
Ю 6 27 км слаб. морось {дождь} 10/10 1500 м
[]
+10.5 +8.3 86 +7 +7 тепло 1004.1 1002.1
Ю 6 30 км в посл. час морось {дождь} 9/9
[]
+10.8 +8.7 87 +8 +8 тепло 1003.9 1001.9
Ю 6-8
{10}
29 км {дождь, морось} 10 баллов +10.7 +9.0 89 +7 +7 тепло 1003.6 1001.5 +9.3
Ю 6 24 км в посл. час дождь {ливн. осадки, морось} 10/10 2000 м
[]
+10.9 +9.6 92 +8 +8 тепло 1003.4 1001.2
Ю 7 26 км {ливн. осадки, морось} 10/10 1500 м
[]
+11.7 +10.2 91 +8 +8 тепло 1003.6 1001.5
Ю 5-9
{11}
30 км {ливн. осадки, морось} 10 баллов +12.0 +10.9 93 +9 +10 тепло 1003.8 1001.6
ЮЗ 3 11 км слаб. ливневой дождь 10/9 200 м
[]
+11.3 +11.2 99 +9 +9 тепло 1003.6 1001.5 1
ЮЗ 2 6000 м морось с дождем {ливн. осадки} 10/8 300 м
[]
+10.7 +10.5 99 +9 +10 тепло 1003.4 1001.3 2
ЮЗ 3-5
{11}
30 км слаб. морось с дождем 10 баллов +11.6 +11.1 97 +10 +10 тепло 1003.3 1001.2 1
Ю 5 35 км в посл. час дождь {морось} 10/10
[]
+13.3 +11.4 88 +11 +11 тепло 1003.2 1001.0
Ю 4 45 км {дождь, морось} 10/10
[]
+13.1 +11.0 87 +11 +11 тепло 1003.2 1001.2
Ю 5-8
{8}
45 км {дождь, морось} 10 баллов +12.7 +10.0 84 +10 +10 тепло 1003.3 1001.2
Ю 4 45 км {дождь, морось} 10/10
[]
+11.8 +9.4 85 +10 +10 тепло 1003.9 1001.8
Ю 3 45 км {дождь, морось} 10/10
[]
+10.8 +9.6 92 +9 +9 тепло 1004.3 1002.2
Ю 3-4
{8}
40 км {дождь, морось} 10 баллов +10.7 +9.7 94 +9 +9 тепло 1004.5 1002.5 +13.4 5
Ю 3 30 км 10/10
[]
+10.4 +9.6 95 +8 +8 тепло 1004.9 1002.7
Ю 3 18 км 10/10
[]
+10.1 +9.6 97 +8 +8 тепло 1005.2 1003.1
Ю 4-6
{6}
16 км 10 баллов +10.3 +9.7 96 +8 +8 тепло 1005.7 1003.6
Ю 3-4
{6}
11 км 10/10
[]
+9.5 +9.2 98 +7 +7 тепло 1006.2 1004.0
Ю 2-3
{4}
8000 м дымка 9/9
[]
+9.0 +8.8 99 +7 +7 тепло 1006.6 1004.4
Ю 3-4
{6}
8000 м дымка 10 баллов +9.2 +9.2 100 +7 +7 тепло 1006.8 1004.7
Ю 3-4
{4}
10 км 10/10
[]
+9.5 +9.1 97 +7 +7 тепло 1006.8 1004.7
Ю 2-3
{4}
9000 м дымка 10/10
[]
+9.0 +8.8 99 +7 +7 тепло 1006.7 1004.6
Ю 3-3
{4}
6000 м дымка 10 баллов +8.7 +8.6 99 +6 +6 тепло 1006.8 1004.7
Ю 3 6000 м дымка 10/10
[]
+9.0 +8.8 99 +6 +6 тепло 1007.2 1005.1
Ю 3 5000 м дымка 10/10
[]
+8.5 +8.4 99 +6 +6 тепло 1007.2 1005.2
Ю 2-3
{4}
700 м туман {дымка} 1 балл +7.3 +7.2 99 +5 +5 тепло 1008.0 1005.9 +7.2
ЮВ 1 300 м туман 9/9
[]
+7.0 +7.0 100 +6 +6 тепло 1008.3 1006.2
Ю 2 800 м туман 10/10 <50 м
[]
+9.4 +9.4 100 +8 +8 тепло 1008.7 1006.6
Ю 1-2
{4}
2800 м в посл. час туман 10 баллов +10.1 +10.1 100 +9 +9 тепло 1009.4 1007.1
Ю 2 4800 м дымка {туман} 10/10
[]
+10.9 +10.5 97 +9 +9 тепло 1009.7 1007.5
Ю 1 6000 м дымка {туман} 10/10
[]
+11.6 +10.9 95 +11 +11 тепло 1009.9 1007.8
ЮВ 1-2
{4}
7000 м дымка {туман} 10 баллов +11.9 +11.2 95 +12 +12 тепло 1009.7 1007.6
В 1 8000 м дымка 10/10 1500 м
[]
+12.0 +10.8 92 +12 +12 тепло 1009.8 1007.7
В 2 7000 м слаб. ливневой дождь {морось} 10/10 2000 м
[]
+12.0 +11.2 95 +11 +11 тепло 1010.0 1007.9
В 2-2
{3}
7000 м в посл. час дождь {ливн. осадки, морось} 10 баллов +12.0 +11.4 96 +11 +11 тепло 1010.2 1008.2
С 2 3700 м дымка {ливн. осадки} 10/10
[]
+10.9 +10.8 99 +9 +9 тепло 1011.0 1008.9
СВ 2-3
{3}
4100 м дымка {ливн. осадки} 10 баллов +11.0 +10.9 99 +10 +10 тепло 1011.4 1009.3 +12.1 0.0
Местоположение метеостанции Хогевен (Нидерланды): широта 52.75 долгота 6.52 высота над уровнем моря 16 м.
В архиве по умолчанию представлена погода в Хогевене за последнюю неделю. Архивные данные за месяц целиком и за предыдущие месяцы, начиная с января 2011 года, Вы можете получить, выбрав интересующий диапазон дат из раскрывающегося списка и нажав кнопку "Найти!".
*Определитесь, кто Вы:
Внимание! Время в таблицах - всемирное. Для получения местного времени необходимо прибавить поправку, которая равна 1 ч.
Смотрите также архив погоды в соседних городах и на ближайших метеорологических станциях:
Партнеры нашего сайта:      
Пояснения к столбцам:
  • Ветер - указаны скорость ветра в м/с - средняя за 10 мин, порывы в срок и между сроками (в фигурных скобках) и направление, откуда дует ветер: С - северный,
  • СВ - северо-восточный, В - восточный, ЮВ - юго-восточный, Ю - южный, ЮЗ - юго-западный, З - западный, СЗ - северо-западный.
  • Видимость - горизонтальная дальность видимости в метрах или километрах. При видимости от 1 до 10 км при отсутствии осадков обычно наблюдается дымка, при ухудшении видимости до 1 км и менее - туман. В сухую погоду видимость может ухудшаться дымом, пылью или мглою.
  • Явления - указаны атмосферные явления, наблюдавшиеся в срок или в последний час перед сроком; фигурными скобками обозначены явления, наблюдавшиеся между сроками (за 1-3 часа до срока); квадратными скобками обозначены град или гололедные отложения с указанием их диаметра в мм.
  • Облачность - указаны через наклонную черту общая и нижняя облачность в баллах и высота нижней границы облаков в метрах; квадратными скобками обозначены формы облаков: Ci - перистые, Cs - перисто-слоистые, Cc - перисто-кучевые, Ac - высококучевые, As - высокослоистые, Sc - слоисто-кучевые, Ns - слоисто-дождевые, Cu - кучевые, Cb - кучево-дождевые. Подробнее классификацию облаков см. в Атласе облаков (PDF).
  • T - Температура воздуха - температура, измеренная на высоте 2 м над землей.
  • Td - Температура точки росы - температура, при понижении до которой содержащийся в воздухе водяной пар достигнет насыщения.
  • f - Относительная влажность воздуха - влажноcть воздуха, измеренная на высоте 2 м над землей.
  • Te - Эффективная температура - температура, которую ощущает одетый по сезону человек в тени. Характеристика душности погоды. При расчете учитывается влияние влажности воздуха и скорости ветра на теплоощущения человека.
  • Tes - Эффективная температура на солнце - температура, которую ощущает человек, с поправкой на солнечный нагрев. Характеристика знойности погоды. Зависит от высоты солнца над горизонтом, облачности и скорости ветра. Ночью, в пасмурную погоду, а также при ветре 12 м/с и более поправка равна нулю.
  • P - Атмосферное давление - приведенное к уровню моря атмосферное давление.
  • Po - Атмосферное давление - измеренное на уровне метеостанции атмосферное давление.
  • Tmin - Минимальная температура - минимум температуры воздуха на высоте 2 м над землей.
  • Tmax - Максимальная температура - максимум температуры воздуха на высоте 2 м над землей.
  • R - Количество осадков - Количество выпавших осадков за период времени, мм. При наведении курсора мыши на число - период времени, за который выпало указанное количество осадков.
  • R24 - Количество осадков - Количество выпавших осадков за 24 часа, мм.
  • S - Снежный покров - Высота снежного покрова, см. При наведении курсора мыши на число - состояние снежного покрова и степень покрытия местности в баллах.